This demonstration page uses our WeatherBlox Daily Observations layout. Learn more.

Left ArrowRight Arrow

Hourly Observations for January 21, 2016

Temp ( °F °C ) Dew Point ( °F °C ) Humidity (%) Winds ( mph kmh ) Pressure ( in mb ) Visibility ( mi km ) Precip ( " mm )
12:53 am 00:53 Cloudy with Mist and Fog 37 2.8 34 1.1 89 89 N 3 6 30.19 1023 6 10 0.00 0.00
1:53 am 01:53 Cloudy with Mist and Fog 38 3.3 34 1.1 86 86 Calm 30.19 1022 6 10 0.00 0.00
2:53 am 02:53 Cloudy with Mist and Fog 38 3.3 35 1.7 89 89 Calm 30.19 1022 5 8 0.00 0.00
3:53 am 03:53 Cloudy with Mist and Fog 38 3.3 34 1.1 86 86 Calm 30.19 1022 6 10 0.00 0.00
4:53 am 04:53 Cloudy with Mist and Fog 39 3.9 35 1.7 86 86 Calm 30.17 1022 6 10 0.00 0.00
5:53 am 05:53 Cloudy 39 3.9 35 1.7 86 86 N 3 6 30.17 1022 7 11 0.00 0.00
6:20 am 06:20 Cloudy 39 4 36 2 87 87 Calm 30.21 1023 7 11 0.00 0.00
6:53 am 06:53 Cloudy with Mist and Fog 39 3.9 35 1.7 86 86 Calm 30.18 1022 6 10 0.00 0.00
7:53 am 07:53 Cloudy with Mist and Fog 40 4.4 36 2.2 86 86 SSE 5 7 30.18 1022 6 10 0.00 0.00
8:53 am 08:53 Cloudy with Haze 41 5 36 2.2 82 82 Calm 30.19 1022 5 8 0.00 0.00
9:53 am 09:53 Cloudy with Haze 42 5.6 37 2.8 82 82 Calm 30.20 1023 5 8 0.00 0.00
10:53 am 10:53 Cloudy with Haze 44 6.7 38 3.3 79 79 NNW 3 6 30.23 1024 6 10 0.00 0.00
11:53 am 11:53 Cloudy with Haze 45 7.2 39 3.9 80 80 Calm 30.22 1023 6 10 0.00 0.03
12:30 pm 12:30 Cloudy with Haze 46 8 39 4 76 76 E 5 7 30.21 1023 6 10 0.00 0.00
12:53 pm 12:53 Cloudy 47 8.3 41 5 80 80 VRB 3 6 30.16 1022 7 11 0.00 0.00
1:20 pm 13:20 Cloudy 48 9 41 5 76 76 ENE 5 7 30.18 1022 7 11 0.00 0.00
1:53 pm 13:53 Cloudy 49 9.4 42 5.6 77 77 E 5 7 30.13 1020 8 13 0.00 0.00
2:53 pm 14:53 Cloudy 49 9.4 42 5.6 77 77 E 5 7 30.11 1020 9 14 0.00 0.00
3:41 pm 15:41 Cloudy 50 10 42 5.6 74 74 ESE 7 11 30.12 1020 10 16 0.00 0.00
3:53 pm 15:53 Cloudy 50 10 42 5.6 74 74 ESE 7 11 30.09 1019 10 16 0.00 0.00
4:53 pm 16:53 Cloudy with Light Rain 49 9.4 41 5 74 74 E 8 13 30.08 1019 9 14 0.00 0.03
5:06 pm 17:06 Cloudy with Rain 48 9 43 6 82 82 E 10 17 30.12 1020 2 3 0.00 0.00
5:11 pm 17:11 Cloudy with Rain 47 8.3 43 6.1 86 86 E 6 9 30.12 1020 2 2 0.03 0.76
5:53 pm 17:53 Cloudy with Light Rain 46 7.8 43 6.1 89 89 E 9 15 30.09 1019 3 4 0.16 4.06
6:03 pm 18:03 Cloudy with Light Rain 46 8 43 6 87 87 E 8 13 30.12 1020 5 8 0.00 0.00
6:39 pm 18:39 Cloudy with Mist and Fog 46 7.8 43 6.1 89 89 E 6 9 30.12 1020 5 8 0.00 0.03
6:53 pm 18:53 Cloudy with Light Rain 46 7.8 43 6.1 89 89 ENE 7 11 30.10 1019 5 8 0.00 0.03
7:53 pm 19:53 Cloudy with Light Rain 45 7.2 42 5.6 90 90 E 9 15 30.09 1019 5 8 0.13 3.30
8:53 pm 20:53 Cloudy with Light Rain 45 7.2 41 5 86 86 E 8 13 30.08 1019 9 14 0.03 0.76
9:53 pm 21:53 Cloudy with Light Rain 45 7.2 41 5 86 86 E 13 20 30.01 1016 10 16 0.03 0.76
10:53 pm 22:53 Cloudy with Rain 45 7.2 42 5.6 90 90 E 7 11 30.04 1017 5 8 0.05 1.27
11:53 pm 23:53 Cloudy with Rain 45 7.2 42 5.6 90 90 E 8 13 29.99 1016 7 11 0.17 4.32

Powered by AerisWeather